Wind_Speed
17 18 18 19 19 19 20 20 21 21 21 21 21 21 20 20 19 19 20 21 21 21 21 22 22 23 23 24 25 27 31 31 27 24 13 6 8 6 4 1 3 6 8 9 12 11 8 7 8 10 3 3 2 1 1 0 2 2 2 5 8 7 6 6 7 6 5 6 7 7 8 9 9 7 4 2 4 6 7 6 1 2 5 4 7 19 30 31
18 18 18 19 19 20 20 20 20 21 21 21 21 20 21 20 20 19 19 20 20 21 21 22 22 22 23 23 24 26 30 29 23 17 8 7 6 1 4 3 3 6 8 8 12 11 7 5 8 9 4 1 2 0 1 1 2 3 3 4 8 6 4 5 6 6 5 6 7 8 10 10 12 8 3 4 5 5 7 3 3 3 4 7 10 20 27 30
19 19 19 19 19 20 20 20 20 21 21 21 21 20 20 20 20 20 19 20 19 20 20 20 21 21 22 23 23 26 27 21 11 5 5 8 9 9 6 4 4 6 8 8 9 8 4 5 6 5 4 1 1 1 0 2 2 2 3 5 6 1 1 1 1 3 3 4 6 8 8 8 10 6 3 6 7 7 9 4 4 2 2 4 7 13 21 25
20 20 20 20 20 20 20 21 21 21 22 21 22 21 20 20 20 20 20 20 19 19 19 20 21 21 23 24 24 24 18 8 2 2 5 8 10 9 6 5 6 7 9 9 7 7 5 4 3 2 3 1 3 2 1 3 1 2 3 5 4 3 1 4 5 4 4 2 2 4 6 8 6 4 3 6 7 9 9 8 8 9 9 8 7 9 15 18
20 20 20 21 21 21 22 22 21 21 22 22 22 22 21 21 20 20 20 19 19 19 19 19 20 21 23 24 24 19 9 3 1 2 5 6 7 6 5 5 7 8 9 10 7 8 7 4 4 4 3 1 2 2 2 3 0 2 3 2 2 2 1 5 5 5 5 5 6 5 6 6 1 3 6 8 10 9 7 9 12 13 13 13 12 11 12 13
21 21 21 22 22 22 22 23 23 22 22 22 21 22 21 21 20 20 19 19 19 18 18 18 19 20 22 23 19 9 3 1 3 3 3 3 3 3 4 5 7 8 9 11 10 10 8 5 5 4 2 2 1 2 4 4 1 2 3 2 3 1 1 6 6 5 5 5 6 4 5 6 5 5 6 10 13 9 5 9 13 14 15 16 14 12 12 13
21 22 22 22 22 23 23 23 23 23 23 23 22 22 21 20 20 19 19 18 17 17 16 16 17 18 20 22 12 3 2 3 5 4 2 0 1 0 3 4 6 8 9 12 12 8 5 6 5 2 2 2 1 2 4 5 2 2 3 4 4 1 2 5 6 6 5 4 5 4 5 6 7 7 5 7 11 9 6 8 12 13 15 16 14 13 15 15
21 22 22 23 23 23 23 23 23 23 23 22 22 22 21 21 21 20 19 18 17 16 15 15 15 15 18 17 7 3 1 4 6 4 2 2 1 2 3 4 6 8 9 9 9 6 4 6 4 2 3 1 1 1 4 4 3 1 2 4 4 3 4 4 5 7 7 4 2 4 7 6 6 6 7 13 14 10 7 5 7 10 13 17 18 18 16 15
22 22 22 23 23 23 23 23 23 23 23 22 22 22 21 22 21 21 21 20 17 16 14 13 13 12 14 10 4 2 2 2 4 3 1 1 2 3 3 3 6 8 7 5 6 6 4 3 2 2 1 2 1 3 4 3 1 1 3 5 4 4 5 5 4 4 6 4 3 6 10 7 6 6 9 16 15 12 9 4 4 8 11 14 18 20 19 18
22 22 22 23 23 23 24 24 24 24 24 24 23 22 22 23 24 24 23 21 18 15 12 10 10 9 10 7 4 2 3 1 2 4 3 3 3 5 4 3 6 8 6 4 4 4 2 1 1 0 2 2 2 3 2 1 2 3 4 5 5 5 5 4 4 4 4 5 3 4 8 7 4 3 9 14 9 7 8 5 3 9 11 12 13 16 19 19
22 22 23 23 23 24 24 24 24 25 25 25 24 24 25 27 27 25 22 19 17 12 9 8 7 6 5 4 3 2 3 1 2 5 8 7 7 8 6 5 6 6 5 5 4 2 1 3 3 1 1 1 3 3 2 1 3 5 5 6 6 5 5 4 5 5 3 4 3 1 5 9 5 5 16 14 2 3 6 6 3 8 10 11 11 11 12 13
22 23 23 23 23 24 24 24 25 26 26 25 24 25 27 28 25 21 19 17 13 9 6 4 3 3 2 2 3 4 4 5 9 12 12 12 14 14 11 9 8 7 6 5 6 6 4 3 2 2 1 1 3 2 2 2 5 5 4 6 7 5 5 6 5 4 5 4 2 2 7 12 10 16 23 10 4 5 7 6 4 7 9 11 12 10 9 9
23 23 24 24 24 24 25 25 25 26 25 25 25 25 27 27 22 18 18 14 8 4 2 2 3 3 1 1 5 5 7 8 9 11 11 12 15 14 13 13 11 9 8 7 11 10 7 4 3 2 2 2 1 3 2 4 4 5 3 2 6 7 6 5 5 6 6 4 5 4 6 11 13 22 21 6 4 6 9 8 5 6 7 10 11 10 10 9
23 24 24 24 24 25 26 25 26 26 25 24 24 24 25 23 19 17 15 9 3 1 4 4 4 3 2 4 7 8 10 6 8 14 14 14 14 12 10 13 13 10 9 10 13 11 7 4 3 1 1 2 2 3 5 5 3 3 3 1 2 3 4 5 2 4 4 3 6 7 6 10 12 20 14 5 4 5 8 12 6 6 7 8 10 10 11 11
24 24 24 25 25 26 26 26 26 25 24 23 22 22 22 20 17 14 9 6 6 4 5 5 5 3 1 5 7 10 9 4 9 15 17 17 13 9 8 8 11 10 9 10 10 8 3 4 4 2 1 1 1 3 4 4 3 2 2 3 2 2 3 7 5 3 3 4 4 8 7 10 12 16 11 4 7 6 7 12 8 7 8 9 10 11 12 11
25 25 25 25 26 26 26 26 26 25 23 20 20 21 18 16 13 9 8 8 8 4 3 4 5 3 1 3 7 9 5 5 13 18 18 18 13 9 9 6 5 5 5 6 7 5 1 4 2 2 1 1 3 3 3 4 4 2 1 3 2 2 3 6 6 2 2 3 3 6 7 9 7 8 8 6 9 10 10 13 11 7 8 9 9 10 11 11
25 25 25 25 26 26 26 27 25 24 22 18 20 19 15 13 8 7 7 8 7 3 3 3 6 2 0 3 6 6 6 12 19 21 21 21 15 11 9 5 2 3 5 5 3 1 2 2 1 0 2 2 3 4 4 3 5 2 0 3 2 2 3 3 5 6 3 1 4 6 10 12 7 5 8 7 6 8 10 12 12 8 7 9 9 10 11 11
25 26 26 26 26 26 26 26 23 22 19 17 19 17 12 10 3 4 5 9 5 3 2 1 3 3 2 4 6 8 14 19 21 22 20 15 9 7 6 3 2 5 6 5 2 1 1 1 1 0 2 2 3 4 2 5 2 2 2 2 2 2 4 4 3 5 6 5 6 6 11 14 8 6 9 9 7 8 11 11 10 9 7 8 9 10 11 11
25 26 26 26 26 26 25 24 21 19 17 17 18 12 9 8 1 1 5 9 5 1 1 3 2 3 3 7 8 13 18 17 16 14 9 6 4 4 3 2 1 3 3 3 4 2 0 1 2 1 1 2 4 5 7 4 1 2 3 2 3 3 5 5 4 5 5 5 7 8 14 14 7 7 8 7 7 9 13 13 9 9 7 7 9 10 11 12
25 26 26 25 25 25 24 22 18 16 15 17 18 11 7 8 3 2 6 5 1 2 2 3 1 0 4 6 8 14 15 9 6 4 6 6 3 1 0 1 4 4 1 2 3 2 2 1 3 4 4 6 6 7 7 4 3 3 3 3 4 4 7 6 4 6 4 4 7 8 15 16 9 8 7 6 8 8 12 14 12 11 8 7 9 11 12 14
26 26 26 25 25 24 22 19 15 14 12 15 17 9 3 4 3 3 6 5 4 5 5 6 5 5 8 9 10 10 6 3 4 3 6 4 0 1 2 1 3 1 2 4 2 2 1 3 6 5 6 7 6 6 6 4 4 4 4 5 5 5 7 6 4 6 3 3 8 10 14 18 13 10 7 5 8 10 11 12 13 14 11 8 9 12 13 12
26 26 26 25 25 23 21 15 12 12 11 14 17 9 2 5 3 3 3 4 7 4 5 6 4 5 9 11 10 5 1 4 7 7 6 4 1 1 2 1 2 3 2 2 1 3 2 6 7 5 5 5 4 5 5 5 5 5 4 4 5 4 5 5 4 5 3 3 8 11 13 16 15 12 10 7 7 11 11 10 12 14 12 9 10 12 12 12
26 26 25 25 24 22 18 11 9 12 10 12 14 8 5 9 4 3 1 2 6 5 2 2 2 3 6 5 3 1 2 4 5 8 8 5 3 1 1 1 3 3 1 2 3 2 4 6 5 5 6 5 4 4 5 5 4 4 4 3 6 4 2 3 2 3 4 5 7 10 10 12 12 10 8 7 8 10 12 11 12 13 12 12 11 11 12 14
27 26 26 26 24 22 15 7 9 14 9 8 10 9 9 11 6 2 1 1 4 5 3 3 2 3 3 2 0 1 2 2 1 6 7 5 3 2 1 3 4 3 2 5 6 6 10 8 2 2 4 6 6 5 4 4 3 4 5 6 7 6 5 6 5 3 4 6 8 9 9 10 10 10 8 6 7 10 12 13 13 13 13 12 12 12 13 15
27 26 26 26 24 21 11 3 8 15 7 5 7 11 11 11 8 2 1 2 2 5 2 2 2 2 3 1 1 2 0 1 3 5 5 4 3 2 2 2 2 2 5 6 4 6 12 8 3 4 5 5 5 5 5 5 3 4 6 10 11 9 7 8 7 4 3 6 7 5 5 7 5 6 8 6 7 10 11 12 14 14 13 11 11 12 12 14
27 26 26 25 23 21 9 1 9 14 5 3 7 11 11 11 7 1 2 3 1 3 3 1 1 1 2 0 3 2 3 1 5 5 3 4 3 1 1 2 1 2 4 3 3 4 5 3 6 8 9 5 6 6 5 6 3 5 5 8 10 9 9 9 9 4 2 5 4 4 4 7 4 3 7 6 7 10 9 10 12 12 12 11 10 11 11 12
27 26 26 23 21 19 8 2 10 9 2 3 9 11 13 10 3 2 3 4 3 2 2 2 0 1 3 3 5 4 2 5 6 4 2 5 4 1 1 3 2 2 1 1 3 3 1 2 5 8 8 7 7 6 5 8 5 5 3 6 8 8 9 10 9 5 4 6 5 3 4 7 7 5 7 6 5 8 9 10 11 9 11 11 11 12 13 13
28 27 25 21 18 15 7 6 10 5 1 7 10 13 14 7 1 2 4 4 2 2 1 2 1 1 2 6 7 1 2 4 3 2 2 5 4 1 1 3 2 3 1 2 4 2 1 2 4 6 6 6 6 5 7 9 6 6 3 5 7 7 8 9 7 5 5 5 6 7 5 6 8 5 5 6 7 10 11 13 14 11 11 11 11 13 13 14
30 28 23 20 16 10 6 7 7 4 6 9 12 16 13 2 2 3 5 2 2 2 1 1 3 2 3 7 5 1 2 2 1 3 3 5 4 2 1 2 0 4 3 3 7 5 2 3 2 3 4 4 5 5 7 9 7 6 4 3 4 5 6 6 5 5 5 4 6 10 7 5 7 3 3 5 7 10 12 13 15 13 12 11 11 12 12 12
32 28 22 17 12 7 7 8 5 6 10 11 15 17 7 3 4 5 3 0 1 3 2 2 4 3 5 7 6 3 2 2 2 3 3 2 3 2 1 0 2 1 3 3 7 8 6 6 6 5 5 4 4 5 6 9 8 3 2 2 4 4 4 4 4 4 3 4 7 13 12 8 7 3 4 5 6 9 9 11 14 13 11 10 9 10 10 10
33 27 18 12 8 6 6 6 7 10 12 14 17 13 2 2 4 6 1 3 2 3 3 3 4 4 7 7 4 4 3 3 3 3 3 3 4 4 2 2 2 1 3 3 5 6 5 7 6 4 6 6 5 5 4 5 5 2 1 1 3 4 2 2 1 2 2 5 7 12 12 10 8 5 4 6 8 9 8 10 14 14 11 9 7 8 9 9
30 22 13 7 5 5 5 6 11 13 14 16 14 6 3 2 4 2 2 4 1 3 3 3 4 5 9 6 2 4 4 3 3 2 2 3 3 3 0 2 1 2 3 2 3 5 4 8 8 4 5 6 5 4 3 3 3 3 2 1 1 3 3 2 3 1 3 5 5 8 10 8 8 7 8 10 13 12 11 11 14 15 14 10 7 7 8 8
25 16 8 4 3 6 6 8 12 13 15 14 7 3 5 5 2 2 3 2 2 3 2 3 5 6 8 6 4 4 2 2 3 2 2 2 3 3 2 4 4 2 2 2 2 4 4 4 3 3 3 6 7 6 4 3 3 4 4 3 3 3 1 2 4 2 3 4 4 5 6 5 5 6 10 14 17 16 15 14 15 16 15 12 9 8 8 8
20 11 8 5 4 6 7 9 10 12 17 12 3 5 6 4 1 2 2 3 4 4 2 2 7 7 3 2 4 4 2 2 3 4 4 2 2 3 4 3 4 4 1 1 2 1 2 5 1 4 2 4 9 9 7 5 4 5 4 4 4 4 3 4 4 3 4 3 4 5 3 3 5 5 10 14 17 17 15 14 14 14 13 11 9 8 8 9
16 8 8 7 6 6 7 9 11 13 15 7 5 6 5 2 3 1 2 4 3 4 5 3 4 5 3 2 3 2 1 2 5 6 3 1 2 3 2 3 4 4 3 1 2 1 2 6 5 4 3 4 6 6 5 5 5 4 3 4 5 6 4 3 3 3 1 1 3 3 3 4 5 6 8 12 15 15 15 13 11 12 11 7 7 8 8 9
12 6 8 7 7 7 9 10 12 14 11 5 6 4 2 3 2 2 3 3 2 3 6 6 3 2 4 4 2 1 1 2 4 6 2 2 4 4 3 3 4 6 5 3 2 1 2 5 4 4 6 5 7 6 5 6 4 3 4 5 4 4 4 2 3 2 3 1 4 1 3 6 5 8 11 12 13 13 14 11 9 10 8 5 6 7 7 8
12 6 6 8 9 9 10 11 12 13 7 6 6 2 2 2 3 4 2 3 3 1 3 3 1 0 3 3 3 3 1 1 2 3 3 4 4 3 3 3 4 8 8 3 1 2 2 6 4 4 8 7 5 5 5 6 5 3 3 5 1 2 2 2 1 2 2 3 4 1 5 7 5 6 9 9 10 11 11 8 6 6 4 3 6 6 7 9
12 4 4 8 10 10 11 12 13 10 4 6 4 1 1 1 2 3 2 3 3 2 4 0 2 1 1 2 3 4 3 2 2 3 2 3 3 3 2 2 3 7 8 3 2 2 1 5 4 3 5 6 1 3 3 6 5 4 3 3 3 1 1 1 1 2 2 3 3 3 6 6 5 5 5 3 2 3 5 4 4 4 3 4 6 7 7 8
9 3 2 7 9 9 11 14 12 6 5 5 3 0 1 2 3 4 3 2 1 2 1 2 2 1 1 2 3 4 2 2 4 3 1 1 2 3 3 1 1 4 6 6 3 2 1 2 3 2 3 4 4 1 2 3 3 3 2 1 3 3 3 2 2 2 2 2 2 3 4 4 6 6 4 2 2 2 3 3 4 5 5 5 6 6 7 7
6 2 1 7 8 9 13 12 7 6 4 2 1 2 1 2 5 5 3 2 1 1 1 3 2 1 3 3 3 3 1 3 4 2 2 2 4 6 2 2 2 4 4 8 4 1 1 2 4 3 2 3 3 3 5 4 3 3 2 2 3 2 1 1 1 2 3 2 2 2 4 5 5 3 5 5 5 5 5 4 5 6 6 6 6 6 7 7
5 2 2 8 8 9 12 8 5 4 2 1 1 3 2 2 4 6 4 0 2 1 1 2 3 2 2 2 3 2 2 4 3 2 3 3 3 4 1 4 1 4 2 5 3 2 2 2 4 5 4 3 6 5 6 5 5 4 4 3 4 4 3 2 2 2 3 2 3 3 4 6 5 3 5 6 8 9 7 5 6 6 6 7 6 7 8 8
3 2 4 8 8 9 8 4 2 2 2 0 1 3 3 3 3 5 4 3 1 1 2 1 2 2 2 2 2 2 3 4 3 3 3 4 5 6 3 3 2 4 2 2 2 3 2 1 4 6 6 8 11 8 7 7 4 3 2 3 3 3 3 4 4 3 2 2 1 2 4 6 5 3 5 8 10 10 8 6 6 6 7 7 7 7 8 8
2 1 5 7 8 8 6 3 3 3 0 3 2 2 3 2 2 3 4 4 2 1 2 1 1 1 2 2 2 2 3 3 4 5 4 4 6 9 6 3 1 3 3 1 1 3 2 1 4 6 5 7 9 4 4 4 2 1 3 4 5 3 2 3 3 2 2 2 2 2 4 7 4 2 5 11 13 12 8 6 7 8 7 6 7 7 6 7
0 3 3 6 8 6 5 3 2 3 3 4 3 3 3 2 2 4 3 3 2 1 2 2 1 1 2 2 2 3 3 3 4 5 5 4 5 6 5 5 4 4 4 3 3 4 2 2 2 3 4 4 4 3 2 2 1 3 4 4 6 6 4 3 1 2 2 5 6 4 5 7 5 5 9 12 14 16 12 7 7 8 7 7 7 7 6 6
2 1 2 5 8 6 4 3 1 1 3 4 3 5 4 2 3 4 4 3 2 1 2 2 1 0 2 2 3 5 5 4 4 4 4 4 5 6 4 6 7 6 7 9 6 5 2 2 2 3 4 3 3 1 1 0 1 3 3 4 8 9 9 5 1 3 4 5 5 4 6 8 9 11 12 11 13 16 14 9 8 7 6 7 7 7 6 6
2 1 3 5 6 6 2 2 3 2 2 2 2 3 4 4 5 4 2 2 1 2 2 2 1 2 2 5 7 7 5 5 7 5 7 7 6 5 4 6 8 10 16 15 9 7 1 3 4 6 7 5 5 5 3 3 2 3 5 5 7 9 11 7 3 4 5 4 3 5 7 10 13 14 12 11 15 16 12 11 12 9 7 8 7 7 7 6
2 1 1 3 3 3 3 2 4 2 1 1 1 2 4 5 6 5 3 2 3 5 2 1 3 4 4 7 8 8 6 5 7 8 10 10 8 7 8 10 12 13 15 8 10 8 2 4 5 9 12 11 9 11 8 4 5 6 6 6 6 6 7 7 7 6 4 2 6 8 8 9 14 14 11 12 17 15 11 10 12 11 10 9 7 8 8 7
2 1 0 1 2 1 2 3 4 4 3 2 1 2 4 5 6 5 4 3 4 5 2 2 4 5 6 7 5 6 8 9 7 6 6 8 9 11 11 9 7 6 5 3 7 4 1 4 4 6 11 12 11 12 12 7 7 8 8 8 7 6 7 10 12 9 5 6 10 8 7 9 13 12 12 14 16 14 12 11 10 10 10 9 8 9 10 9
2 1 1 2 1 2 2 3 5 4 5 3 1 3 4 4 5 4 4 4 4 3 1 3 7 9 9 8 4 4 7 7 7 7 8 10 11 10 8 8 6 3 6 5 3 0 1 4 4 4 10 12 10 13 13 9 7 8 9 10 9 9 10 11 12 10 9 11 13 10 9 12 13 14 14 14 14 12 10 9 9 9 10 9 7 8 10 10
2 1 2 2 2 3 2 2 3 2 3 3 2 2 3 3 5 6 4 3 4 4 2 5 9 10 11 11 6 6 8 7 9 13 12 12 12 8 4 4 3 3 4 2 3 2 3 4 3 3 6 11 7 8 10 10 9 9 8 8 8 8 9 9 10 9 8 11 13 13 13 13 14 13 11 11 11 8 8 10 10 10 9 7 6 8 9 9
3 1 1 1 2 2 1 2 2 1 2 2 2 2 3 4 6 9 7 5 6 4 3 7 11 9 9 10 9 10 11 10 13 18 16 13 13 9 5 5 5 6 6 2 2 3 4 3 3 1 3 7 4 2 6 8 8 6 6 6 6 6 6 7 8 7 9 11 12 11 10 10 11 9 8 10 10 7 8 12 11 9 8 6 6 8 9 8
5 2 2 1 1 2 2 2 2 2 1 2 2 3 3 4 5 7 6 3 3 4 3 5 9 8 7 10 12 12 13 15 18 20 17 14 14 13 11 12 11 7 4 3 3 2 3 3 3 2 3 6 4 2 2 2 2 1 4 4 4 4 3 4 5 5 7 9 8 7 7 7 8 8 8 12 13 10 10 11 9 8 8 6 6 7 9 8
Wind_Direction
352 351 349 348 348 347 346 346 346 344 344 341 340 340 338 337 335 334 332 331 332 331 332 332 332 333 332 331 331 331 329 328 327 324 323 323 311 270 227 45 27 351 346 345 356 6 14 14 2 360 51 125 24 187 208 233 140 118 162 219 227 220 212 183 182 186 168 179 188 187 185 198 225 223 205 191 193 208 212 215 232 31 26 50 114 128 135 142
350 350 349 348 346 346 345 344 343 341 341 339 338 337 336 335 333 333 331 331 331 331 332 331 332 332 332 331 330 332 328 327 323 311 318 0 356 109 125 74 22 351 354 3 8 15 21 351 336 351 29 107 335 176 218 253 182 174 161 222 229 216 206 183 184 190 179 180 181 196 201 200 217 219 194 212 225 215 216 228 61 65 36 59 111 131 140 144
349 348 347 347 345 345 343 341 340 338 339 339 337 336 335 333 332 331 330 330 329 329 330 331 332 331 332 330 330 333 327 326 326 312 3 39 69 93 95 68 21 12 16 17 6 3 1 316 315 348 36 72 302 40 138 222 216 202 181 228 238 247 249 264 15 226 234 182 185 210 205 211 222 204 176 216 222 216 215 201 102 158 184 130 134 139 145 149
347 347 345 344 344 342 341 340 340 340 339 338 337 336 334 332 332 330 329 328 326 328 328 329 331 331 332 329 332 332 327 335 349 354 40 64 81 82 78 60 33 29 24 19 13 6 352 331 349 30 55 353 308 25 154 228 228 202 195 215 242 10 337 301 357 354 336 351 251 245 220 229 228 183 188 198 202 218 214 187 168 187 188 161 157 154 155 158
346 345 344 342 341 340 340 340 340 340 338 337 336 335 334 333 331 329 328 326 326 326 326 328 330 332 331 330 335 332 333 27 330 351 53 69 75 75 72 61 42 31 22 22 25 25 20 20 43 44 50 19 323 20 248 251 143 213 222 214 262 22 358 292 334 5 358 358 348 325 266 267 279 194 210 200 209 221 199 186 185 182 178 167 167 167 165 172
344 344 343 340 340 339 339 339 338 338 337 336 336 335 334 332 331 330 328 327 326 324 325 327 328 332 331 332 337 340 13 8 291 358 32 52 75 78 64 58 42 26 18 26 33 36 29 23 43 52 41 3 277 208 261 293 35 248 260 315 311 63 347 292 317 340 8 8 341 324 297 317 322 265 228 213 225 231 192 184 188 182 176 167 160 159 169 185
344 343 341 339 339 338 338 338 337 337 336 336 335 334 333 331 330 329 326 327 325 322 324 324 329 332 332 338 348 33 72 266 296 343 300 266 158 26 46 39 30 25 19 27 35 36 27 29 41 93 76 6 268 226 285 322 346 240 269 315 316 325 272 280 313 326 4 355 289 292 301 305 296 292 307 267 251 248 230 198 191 184 170 156 149 163 179 189
344 343 341 339 339 338 337 336 335 335 335 334 333 332 330 328 327 325 324 322 319 320 322 322 330 332 333 347 7 16 352 261 324 358 234 236 245 291 11 17 16 13 16 30 43 39 32 42 29 53 60 340 272 306 316 332 332 250 271 312 329 333 296 302 330 326 331 312 286 326 301 292 296 302 302 280 271 266 255 227 196 183 165 156 161 173 182 189
344 343 342 340 339 339 336 335 335 334 333 332 330 328 326 325 323 323 320 314 311 313 316 320 326 329 335 354 35 340 300 269 351 63 126 290 258 273 299 348 356 351 2 22 46 45 41 46 11 46 73 275 314 326 333 0 325 322 318 315 325 312 296 306 310 304 309 303 17 334 299 301 311 309 282 258 256 263 262 251 177 168 173 173 173 175 180 188
344 343 342 340 340 339 336 336 336 334 333 330 327 326 326 326 326 323 316 308 305 303 306 315 317 322 337 5 56 345 298 254 81 81 18 312 268 271 270 311 327 329 334 323 0 40 56 167 224 143 197 262 335 306 345 76 255 325 322 303 302 283 276 281 277 279 297 294 303 292 287 297 306 308 267 248 238 256 265 266 174 162 182 191 190 186 184 188
345 343 341 340 340 338 337 337 335 334 332 328 328 331 332 334 333 328 318 307 302 295 290 297 303 311 338 32 83 273 278 287 304 322 324 305 292 282 266 275 293 311 318 307 307 308 285 219 200 80 179 285 333 305 300 221 298 329 328 313 302 290 284 257 267 278 268 276 262 245 294 286 276 245 251 253 272 309 284 280 216 176 188 196 205 209 199 200
346 343 342 341 340 338 337 336 334 333 330 328 332 335 337 337 335 330 322 313 301 285 269 269 278 288 338 70 183 243 310 319 304 308 307 297 291 281 268 260 259 279 293 292 283 282 284 245 115 81 227 317 341 316 286 297 326 324 346 329 308 324 305 243 226 228 209 221 199 49 306 270 252 248 251 266 352 313 293 278 230 197 195 193 203 214 217 227
345 343 343 342 339 338 337 335 334 332 330 333 336 337 339 337 335 330 324 316 301 267 217 189 225 236 54 304 257 301 331 318 325 339 331 314 302 285 263 248 247 260 272 275 273 280 280 242 126 152 232 70 316 272 314 345 340 317 347 335 313 337 314 249 206 202 208 204 148 109 277 254 246 251 256 298 334 288 289 272 225 203 207 196 200 205 211 217
345 343 343 341 340 338 336 336 334 333 334 336 338 339 340 338 336 332 324 318 329 81 133 155 196 176 109 278 289 347 346 329 357 4 359 347 334 312 273 245 246 255 263 269 272 283 280 229 147 152 226 131 231 297 344 351 356 333 316 283 321 312 298 323 326 176 192 213 151 148 248 251 246 257 267 346 312 264 270 266 239 197 211 206 202 202 208 209
344 344 343 342 340 338 337 336 334 336 338 339 340 340 340 342 341 344 355 26 36 63 127 154 181 161 29 288 305 350 354 1 357 349 346 346 342 324 307 268 250 254 261 262 269 286 266 168 138 118 254 249 58 25 353 340 356 13 296 289 356 225 275 336 327 162 184 265 170 164 240 259 245 258 272 306 288 267 255 265 254 205 203 209 206 204 210 211
343 343 343 342 340 339 338 337 337 340 341 343 343 340 341 347 354 22 51 48 32 57 127 148 171 160 41 295 322 350 3 335 329 329 326 330 328 307 313 312 263 258 276 266 263 275 164 139 154 146 163 348 85 75 23 352 331 11 198 250 302 276 304 332 311 269 201 267 238 200 241 263 247 266 277 258 260 264 261 266 263 229 199 209 208 205 212 208
343 342 342 342 340 339 338 337 340 344 344 348 346 340 343 350 11 69 63 29 25 93 124 142 157 135 9 311 333 342 324 314 319 318 312 315 313 297 298 310 0 8 339 316 272 256 121 131 230 170 59 62 122 90 45 298 277 342 44 244 265 253 269 308 308 317 351 343 268 249 251 260 266 299 292 275 263 270 269 267 268 254 204 207 208 204 213 209
343 341 341 341 340 339 338 338 343 348 349 354 349 338 343 350 17 97 33 3 3 143 122 146 138 92 327 331 331 301 303 309 312 310 308 313 305 291 277 251 20 24 7 355 340 27 1 335 64 126 16 58 123 111 163 230 210 125 163 229 293 273 257 260 269 300 337 325 290 283 267 266 279 294 286 283 280 279 274 267 269 266 223 208 208 203 208 209
342 341 341 340 340 339 338 339 346 354 355 359 355 344 356 3 343 169 352 353 0 120 12 323 48 72 283 304 301 296 305 306 306 303 305 326 318 300 268 218 52 47 38 3 333 357 53 343 41 179 226 180 185 178 200 219 92 159 184 201 258 282 265 245 251 280 313 309 283 277 272 272 282 279 281 293 288 274 272 271 269 266 239 209 211 207 204 207
342 341 341 340 340 338 339 342 350 1 5 8 7 5 17 13 2 325 336 346 10 189 287 272 150 83 278 289 290 306 320 314 300 303 309 312 302 333 307 88 44 46 98 191 282 322 105 254 253 221 208 201 208 211 216 249 308 279 271 269 252 258 267 254 255 279 302 310 271 264 275 279 278 269 272 295 299 284 273 272 268 263 247 213 212 213 207 207
342 342 341 340 339 338 341 347 359 11 19 29 31 37 37 17 13 335 334 318 266 230 246 246 220 238 259 269 286 310 341 324 289 315 331 323 143 345 297 72 64 342 245 179 218 323 47 249 245 218 207 203 203 209 214 237 269 264 260 276 267 244 264 267 240 255 282 300 272 271 280 282 278 274 272 274 283 278 269 268 269 263 252 224 209 216 214 208
342 342 341 340 339 339 344 354 10 14 29 48 49 64 69 9 346 281 323 315 293 260 240 258 245 253 265 267 277 291 1 324 315 325 348 13 43 310 271 100 143 227 273 111 27 331 294 256 245 210 190 190 198 200 199 215 233 241 239 267 272 259 278 277 232 231 235 231 266 272 273 275 274 269 263 247 247 263 262 256 263 264 256 239 213 214 218 212
342 342 342 341 339 342 348 5 21 14 34 59 54 62 31 7 346 274 313 295 294 296 265 266 240 272 294 285 257 221 347 334 323 320 336 10 359 257 172 212 217 225 75 143 204 249 257 257 237 198 179 182 222 215 202 226 235 227 227 249 262 261 279 276 252 244 245 230 255 272 275 276 276 269 258 238 228 253 265 259 260 263 256 247 228 213 213 212
342 342 342 340 341 347 356 22 29 14 30 75 55 34 14 4 355 311 346 162 286 296 260 236 236 241 272 299 308 124 325 313 226 305 327 8 345 286 202 229 236 248 218 205 207 223 246 244 193 174 182 187 230 239 211 229 256 230 214 227 251 253 231 240 264 283 279 261 260 276 287 279 271 265 256 238 231 248 262 263 263 262 256 250 240 222 212 213
342 342 342 342 343 350 2 49 23 12 24 95 41 8 360 353 345 342 41 73 302 295 276 240 242 233 239 266 271 234 318 263 236 277 303 358 337 293 299 248 231 253 234 227 221 244 258 242 191 244 233 190 213 242 215 192 240 264 223 221 236 246 240 243 262 282 309 279 257 242 267 279 280 266 248 228 232 244 253 258 256 257 254 247 242 231 217 216
342 342 343 343 342 349 5 75 1 6 29 74 11 353 352 349 344 30 80 58 325 298 333 298 191 297 289 290 289 318 56 288 274 287 320 7 343 260 311 292 286 284 251 244 238 250 271 205 174 230 243 222 218 240 215 165 209 266 219 206 224 235 238 244 252 245 236 261 247 170 219 275 306 289 252 226 223 241 254 263 257 255 254 242 233 231 219 216
342 341 343 342 342 348 356 323 344 2 68 352 345 344 348 349 355 114 67 39 0 300 305 285 33 353 298 338 342 4 34 300 316 355 50 12 336 196 209 264 250 295 320 38 273 248 276 214 196 226 241 238 235 239 199 164 197 252 179 173 212 228 230 235 239 227 225 255 275 238 222 267 279 258 248 248 250 260 266 269 266 258 256 249 234 228 219 212
342 341 342 340 338 341 330 311 334 2 25 329 334 339 342 346 23 91 80 67 352 322 267 276 305 314 302 350 1 31 260 312 358 338 28 39 11 39 300 267 225 284 297 160 254 267 355 264 217 224 238 237 234 223 189 175 205 255 229 196 214 224 230 236 235 231 236 245 273 266 230 254 271 241 225 247 255 265 268 269 270 265 258 255 244 235 226 215
341 341 340 334 331 335 325 314 321 344 342 332 332 333 336 17 108 54 78 92 323 307 207 303 320 312 340 352 350 331 310 3 137 270 340 49 33 49 264 269 15 307 299 212 248 269 280 283 280 252 245 240 241 221 188 181 209 250 256 242 241 232 233 239 231 228 234 221 246 255 233 242 269 232 209 242 235 246 259 265 267 265 261 257 247 242 235 221
341 340 337 326 323 332 324 317 322 338 338 331 325 326 329 124 87 52 48 319 298 295 278 350 331 326 2 356 332 328 341 276 253 316 341 4 356 31 158 240 62 314 294 270 259 261 256 267 285 266 233 226 238 237 206 193 209 244 334 311 294 275 243 236 228 207 224 232 239 244 235 238 259 221 195 233 224 226 240 255 264 264 262 259 249 243 237 226
341 339 332 316 310 316 314 321 334 335 331 324 322 324 338 113 55 80 88 250 244 308 326 338 321 336 358 359 319 310 334 306 314 359 344 328 346 3 28 24 27 11 328 308 277 278 255 240 252 242 213 204 218 245 235 209 208 205 327 350 338 316 316 303 288 133 194 241 236 238 235 233 248 238 215 244 245 235 232 244 259 262 260 259 251 243 236 225
344 341 334 311 294 297 299 316 325 327 325 322 325 343 100 45 23 99 261 302 305 305 320 306 306 336 337 341 294 292 320 321 330 6 326 332 331 311 176 173 195 15 335 287 297 312 269 228 228 227 206 185 197 246 240 232 223 197 218 73 88 292 324 316 281 183 219 249 233 231 230 229 250 247 232 248 254 247 240 240 251 260 261 260 250 238 236 226
347 350 356 351 319 318 322 324 322 322 323 325 336 49 84 68 27 227 272 324 262 270 303 297 306 325 326 332 323 306 303 284 331 356 300 334 342 295 258 207 179 152 260 267 339 328 309 283 230 204 222 193 198 228 227 218 205 190 196 152 164 222 251 250 260 258 259 269 266 262 250 240 263 243 217 234 247 243 237 236 240 249 255 256 249 234 230 227
350 358 13 22 6 350 348 339 331 326 326 334 42 66 59 76 239 258 292 272 255 291 318 298 313 322 328 323 310 334 356 299 338 350 311 347 7 306 302 268 191 161 199 307 340 293 302 317 255 172 214 195 202 221 218 205 204 201 183 161 182 195 195 224 234 242 261 278 293 299 286 215 230 227 202 217 237 238 234 235 236 244 249 249 251 239 224 225
352 4 28 40 35 19 1 346 340 334 331 350 70 60 69 136 252 282 261 260 275 313 301 303 336 335 333 303 284 354 56 287 343 353 324 339 297 259 271 264 198 156 124 147 273 187 208 269 250 223 233 188 204 222 186 179 217 223 158 160 208 192 181 230 222 206 220 319 288 277 260 231 238 254 234 224 233 232 231 235 236 247 253 247 251 248 230 226
2 41 49 45 38 19 357 345 341 338 340 42 73 55 118 195 222 180 218 266 294 306 312 333 21 2 325 316 298 343 162 219 340 348 320 284 275 234 214 241 192 177 168 158 225 210 239 264 259 277 279 232 218 218 176 173 197 198 183 207 221 167 151 207 267 339 52 303 272 245 262 278 272 267 262 246 235 230 229 228 227 242 251 241 244 249 244 237
8 46 45 33 26 11 356 344 338 340 358 80 81 81 214 232 185 179 242 302 298 335 31 357 336 280 314 306 298 331 356 207 331 341 325 302 277 212 211 254 183 191 199 182 225 209 250 279 260 253 273 264 221 203 209 209 181 135 194 209 175 65 113 136 253 341 39 256 271 233 249 266 256 258 270 253 228 228 234 231 238 254 250 233 243 248 250 245
357 17 33 23 13 5 357 341 334 345 46 75 50 73 222 282 193 195 267 312 306 54 83 154 245 236 300 288 293 323 349 330 318 324 313 297 271 195 209 266 196 202 210 208 268 246 230 290 278 214 252 289 316 160 235 253 217 193 213 188 126 136 241 119 162 228 231 255 286 281 263 256 229 239 280 285 228 237 258 271 291 289 273 253 258 261 264 260
357 12 20 3 358 0 353 335 333 7 71 65 29 261 238 275 258 242 255 292 306 95 103 233 235 330 268 245 283 306 331 312 316 326 262 243 264 227 199 200 234 233 208 190 214 235 170 277 288 200 220 308 341 155 216 260 226 206 248 220 147 164 190 176 169 169 182 230 279 301 298 264 231 221 211 233 359 340 283 295 285 260 249 252 262 269 279 280
13 42 341 349 354 346 338 335 350 39 66 73 173 228 259 274 279 279 268 262 215 164 234 231 211 306 271 260 278 276 268 298 308 297 208 222 262 266 249 126 319 300 209 190 194 148 141 227 263 262 271 308 300 213 201 205 177 157 193 209 188 174 144 169 207 147 138 170 210 261 282 262 252 233 206 232 311 302 267 269 264 249 242 247 258 263 269 277
19 63 321 347 352 331 337 359 33 46 70 67 262 253 281 291 289 298 306 264 207 239 266 209 207 228 251 278 289 269 287 300 285 219 236 239 232 265 267 117 302 305 209 194 200 174 181 212 251 278 300 274 243 215 190 182 161 151 172 190 194 192 162 169 244 215 148 156 184 203 266 269 260 266 258 270 296 292 281 277 270 264 256 249 246 244 248 265
37 64 322 349 353 337 356 53 41 31 110 61 313 265 289 312 293 294 317 3 50 333 4 299 227 228 240 255 269 284 299 288 257 218 233 233 223 240 220 145 259 265 210 215 198 160 160 210 252 266 268 262 261 242 195 179 156 137 184 207 211 199 170 184 215 213 167 165 182 212 264 272 258 243 277 283 280 280 281 274 273 273 260 254 254 248 246 260
72 289 319 356 350 345 28 75 334 8 55 279 286 263 279 288 292 299 314 341 0 9 359 329 255 254 252 250 281 301 303 281 245 225 235 253 248 242 219 158 260 238 196 247 154 148 154 201 250 265 264 269 280 267 187 173 144 222 240 222 214 228 236 221 203 175 188 208 193 229 257 267 272 250 273 283 288 295 292 268 275 284 274 269 273 269 260 264
193 257 302 0 351 356 61 91 335 342 311 309 325 314 299 254 296 316 305 312 333 353 331 300 279 290 288 295 284 260 270 278 244 237 250 254 251 244 202 179 229 225 196 209 176 157 189 199 223 274 290 304 330 12 34 22 163 221 246 216 205 218 241 283 281 173 236 233 208 223 261 263 277 288 281 287 298 302 295 267 264 279 284 288 286 282 272 271
331 271 274 349 11 31 93 140 132 226 297 326 333 315 321 307 291 294 271 267 296 328 291 282 284 252 285 307 280 260 253 240 241 266 271 256 270 275 230 214 225 214 227 234 184 144 208 208 181 249 277 289 301 310 114 131 208 232 257 218 199 204 209 221 223 170 227 241 205 211 258 270 280 282 282 290 294 291 290 288 286 279 275 279 283 290 289 283
14 24 306 336 17 44 83 121 82 91 289 335 324 310 347 334 306 304 287 258 327 349 296 273 28 46 334 334 322 305 281 227 227 263 282 276 281 278 273 278 262 256 265 253 189 141 243 244 205 233 244 238 252 256 218 170 201 245 264 244 213 207 204 193 166 189 215 245 240 225 240 267 280 279 286 297 288 284 291 302 304 301 290 281 280 292 296 286
53 47 358 344 341 16 40 44 57 63 256 242 273 326 0 339 318 323 313 275 334 346 312 230 35 22 331 332 329 308 299 278 250 255 270 272 277 286 295 291 273 276 287 254 164 144 282 266 214 222 239 238 240 258 257 234 239 247 255 261 245 226 205 191 211 219 181 200 259 243 221 246 269 273 281 283 278 282 291 293 298 305 301 295 299 307 305 304
46 94 127 53 297 324 14 345 359 355 306 246 199 357 3 352 348 345 317 308 335 345 0 348 348 343 315 316 318 291 300 307 280 263 276 279 293 310 313 305 288 302 351 110 148 146 281 263 222 213 249 247 229 246 257 243 240 242 239 250 253 232 202 202 222 222 171 199 246 246 216 234 259 268 270 268 271 280 288 289 296 297 290 290 303 314 315 324
55 62 324 18 335 246 246 310 331 338 319 303 357 12 1 341 341 328 291 310 322 309 56 338 316 321 320 315 307 278 296 310 295 293 306 305 306 314 316 311 315 14 64 107 167 236 231 254 239 214 262 269 238 232 243 238 236 240 234 236 235 228 217 216 226 221 206 226 248 259 254 253 258 260 260 264 271 280 286 290 293 286 278 285 300 312 317 326
43 33 324 355 322 273 258 315 333 334 321 336 4 351 333 315 323 317 287 259 275 285 339 330 314 319 319 311 297 265 266 273 276 283 296 305 306 307 302 279 283 353 24 107 180 201 209 254 265 202 268 289 265 222 226 230 228 234 243 243 236 236 232 228 232 222 215 236 248 254 262 265 263 264 269 277 281 291 297 290 284 276 274 284 302 311 311 315
25 30 341 339 300 306 308 305 350 38 334 348 14 339 328 322 324 324 305 228 218 253 312 321 315 317 311 301 292 278 274 276 276 277 278 277 274 277 275 259 271 318 331 297 220 216 219 267 303 283 284 291 289 227 229 228 220 229 262 272 252 232 222 226 232 216 210 231 244 249 254 260 271 292 313 300 290 293 293 286 283 279 275 279 292 299 299 298
19 12 29 52 293 337 16 328 0 36 299 303 348 341 312 291 301 320 318 281 233 242 253 302 306 309 308 299 292 290 294 295 287 282 279 269 257 257 257 256 263 278 282 283 290 233 220 272 292 296 293 281 295 335 259 193 120 257 276 283 262 247 256 266 262 240 225 227 234 242 246 262 297 325 322 302 296 294 286 282 280 281 284 283 272 275 281 280
Height
839 837 836 834 833 831 830 828 827 825 823 822 820 818 817 815 814 812 811 809 808 806 805 803 801 800 798 796 793 791 787 784 780 779 778 775 774 774 775 776 776 776 775 775 773 772 772 771 771 770 769 769 772 771 771 771 770 774 778 783 781 778 777 770 769 770 768 768 767 765 763 767 767 762 757 757 761 763 764 763 762 761 760 760 759 758 759 761
838 837 835 834 832 831 829 828 826 825 823 821 820 818 816 815 813 812 810 809 807 806 804 803 801 800 798 795 793 791 787 784 782 779 777 774 773 773 775 776 776 776 775 774 774 773 773 773 772 771 770 770 772 771 771 770 770 773 777 780 775 771 768 762 762 763 762 764 764 761 761 762 762 759 757 761 765 762 764 766 764 765 764 763 762 761 761 761
838 836 835 833 832 830 829 827 826 824 822 821 819 817 816 814 813 811 810 808 807 805 804 802 801 799 797 795 793 790 787 784 781 779 776 775 774 774 775 776 775 775 775 775 774 774 774 774 773 773 772 772 773 772 772 770 771 772 775 778 772 765 763 761 762 762 761 762 761 760 759 760 758 756 758 761 764 761 762 765 766 769 767 767 766 763 763 764
838 836 834 833 831 830 828 826 825 823 822 820 819 817 815 814 812 811 809 808 806 805 803 802 800 798 797 794 792 790 788 784 780 778 777 777 776 776 776 775 776 775 775 775 775 774 774 774 773 773 773 773 774 774 773 771 771 772 773 774 770 767 766 764 765 764 764 763 763 761 758 760 756 756 758 760 765 762 758 758 761 764 763 765 767 765 766 766
837 835 834 832 830 829 827 826 824 822 821 819 818 816 814 813 812 810 809 807 806 804 803 802 800 798 796 793 791 789 787 783 780 779 779 778 777 777 776 776 776 775 775 775 775 774 773 773 773 773 775 775 775 775 774 771 770 772 771 770 770 770 770 767 765 766 766 765 766 765 762 761 756 756 757 758 763 759 753 752 753 754 756 759 762 763 766 767
837 835 834 832 830 828 826 825 823 822 820 818 817 815 814 812 811 809 808 807 805 804 803 801 800 798 796 793 790 789 787 783 780 780 779 779 778 777 777 776 776 776 775 775 774 774 774 774 774 776 778 777 778 776 775 773 771 774 772 769 770 771 772 768 765 766 766 767 768 768 765 762 761 759 754 754 755 749 746 746 746 747 748 750 755 761 765 768
836 835 833 831 829 828 826 824 822 821 819 817 816 814 813 811 810 808 807 806 804 803 802 801 800 798 796 793 790 790 790 784 779 780 779 779 779 778 778 777 777 776 776 775 774 775 775 775 775 778 779 778 779 778 776 775 773 776 775 773 771 770 771 768 766 766 766 769 768 767 765 764 766 764 757 753 749 745 744 742 742 743 743 746 753 759 762 765
836 834 832 831 829 827 825 823 822 820 818 816 815 813 812 810 808 807 805 804 803 802 801 800 800 798 796 793 792 791 790 784 779 779 779 778 778 778 778 777 777 777 776 776 776 776 776 777 778 779 781 780 781 779 778 776 774 777 778 775 773 771 769 768 768 766 765 766 766 765 766 765 766 765 761 755 748 744 743 742 742 743 743 745 749 755 760 763
836 834 832 830 828 826 824 822 820 819 817 816 814 812 810 808 807 805 803 802 801 801 800 800 799 798 797 795 796 791 784 781 779 779 778 778 778 778 778 778 778 777 777 777 777 777 777 779 780 779 782 782 780 780 779 779 778 779 779 777 776 774 770 769 768 766 765 764 765 766 766 766 763 763 758 747 744 743 742 743 744 746 749 747 746 749 754 758
835 834 832 830 827 826 823 821 819 818 816 814 812 810 809 807 805 803 801 799 799 799 799 799 798 798 797 796 797 791 781 780 780 779 779 779 778 778 778 778 777 777 777 778 777 778 778 779 779 779 781 781 780 780 779 780 781 780 779 777 776 775 771 769 768 767 767 764 765 767 767 764 761 765 755 738 739 742 742 745 745 747 750 750 749 746 748 750
835 833 831 829 827 825 822 820 818 817 815 812 810 808 807 805 803 801 799 797 797 797 798 798 798 798 797 797 798 791 781 781 781 779 780 779 779 778 778 778 777 778 777 777 778 778 778 778 778 778 780 780 780 779 778 779 779 778 778 777 775 774 772 770 769 768 768 765 762 764 766 762 761 762 747 735 741 744 744 747 747 748 749 750 751 749 748 747
835 833 830 828 827 824 822 820 818 816 813 811 809 807 805 803 801 799 797 796 795 795 796 797 797 797 797 797 796 788 781 782 781 780 780 779 778 778 778 778 777 778 778 778 777 777 778 778 778 779 780 780 781 779 777 777 777 776 777 777 775 773 773 769 768 767 766 766 760 762 768 763 760 752 736 737 744 744 745 747 747 749 748 749 750 750 750 749
834 832 830 828 826 824 821 819 817 815 812 810 807 805 804 801 799 798 796 794 793 794 795 796 796 796 797 794 787 783 781 781 781 780 780 778 777 776 776 777 777 777 778 777 776 776 777 777 778 779 779 780 782 780 776 776 776 776 776 779 778 777 775 767 766 765 765 764 757 764 774 765 755 742 733 742 746 745 747 746 747 748 748 748 747 749 749 749
834 831 829 827 825 823 820 818 816 813 810 808 806 805 803 800 798 796 795 793 793 794 794 796 796 796 798 791 782 781 781 781 781 780 779 778 777 776 776 776 777 777 777 777 776 776 777 777 778 779 779 780 780 778 778 779 778 778 777 778 781 784 779 768 766 766 766 764 755 765 776 764 751 741 737 745 746 747 748 744 746 748 747 747 746 747 747 747
833 831 829 826 824 822 819 817 814 812 810 808 806 804 801 799 797 795 794 794 794 794 794 795 795 796 797 789 781 782 781 780 780 780 779 779 778 777 776 776 777 777 777 776 775 776 776 776 778 779 779 778 779 780 783 783 780 781 781 780 783 785 780 771 766 766 766 764 756 765 771 758 750 743 740 746 745 747 748 743 744 746 747 747 745 746 745 745
832 830 828 826 824 821 819 816 813 811 809 807 805 803 801 799 797 796 795 795 795 795 794 795 795 797 796 787 781 781 781 780 780 779 779 779 779 777 777 776 776 776 776 776 775 775 776 776 777 778 779 779 781 784 786 786 785 786 786 785 787 786 784 778 769 765 765 765 760 763 764 753 748 743 740 744 744 745 745 743 742 744 746 745 745 744 743 744
832 830 828 826 823 820 818 815 813 810 808 807 804 802 801 799 798 797 796 796 796 795 795 795 796 797 791 783 782 783 782 781 779 779 778 777 778 777 777 777 776 776 776 775 775 775 775 776 778 778 780 782 783 785 789 789 788 790 789 788 789 787 787 784 776 767 765 768 766 764 759 751 747 744 741 742 743 745 744 742 741 741 744 744 743 743 742 743
832 829 827 825 823 820 818 815 812 810 808 807 804 802 801 799 798 798 798 797 796 796 795 795 795 794 789 783 785 786 783 781 778 777 776 776 776 776 776 776 777 776 777 777 776 776 777 777 780 781 783 785 784 786 789 786 784 788 789 788 789 788 787 786 781 772 768 770 769 767 760 751 750 749 744 743 743 744 742 740 740 739 742 742 741 741 740 741
831 829 827 825 823 820 818 815 813 810 809 807 804 802 800 799 798 798 799 798 797 796 795 795 795 794 792 788 787 786 782 780 778 776 776 775 776 775 775 776 776 777 779 781 779 778 778 780 782 783 785 786 784 785 784 782 782 786 788 790 791 791 787 785 782 774 772 775 772 769 761 752 754 752 747 746 744 744 740 737 738 737 739 740 739 738 737 738
831 829 827 824 822 820 818 815 813 812 810 807 805 802 802 804 802 800 800 799 799 798 796 797 798 797 794 789 787 785 781 779 778 776 775 776 776 775 775 776 777 778 781 782 780 780 781 783 784 784 785 784 783 783 782 783 784 786 789 790 790 791 787 782 781 775 773 777 773 767 760 754 755 752 748 748 746 745 741 737 736 734 735 737 738 736 734 733
831 828 826 824 821 819 817 815 814 813 812 810 807 806 810 814 812 810 808 802 798 798 797 796 797 796 792 789 787 785 784 780 777 777 776 776 775 776 777 777 779 781 781 782 782 780 782 785 783 782 782 781 781 782 783 785 785 786 789 789 790 790 786 780 780 776 773 777 773 767 763 757 754 753 749 748 747 744 741 738 735 731 732 734 735 734 732 730
830 828 826 823 821 819 817 815 814 814 813 812 810 811 815 817 817 816 815 810 801 797 797 795 795 794 790 788 786 786 787 783 777 776 776 776 776 777 777 778 780 781 780 782 783 783 784 783 780 779 780 780 781 782 783 785 785 787 788 791 791 787 783 780 778 775 773 777 773 767 765 756 750 750 747 747 746 741 736 736 733 729 730 730 731 731 730 729
829 827 825 823 820 818 817 815 815 814 814 813 813 815 816 816 816 816 816 816 807 796 794 794 793 792 789 787 785 785 786 784 782 778 776 777 777 778 779 779 780 781 782 782 782 786 786 779 775 776 778 779 781 782 783 785 786 788 789 792 791 784 785 784 778 774 773 773 770 766 764 755 748 748 745 744 742 736 732 731 731 728 728 727 726 726 727 728
828 826 824 822 819 817 816 816 815 815 814 814 815 816 817 816 816 815 815 817 811 799 793 793 792 791 789 785 785 785 785 785 785 781 777 778 778 779 779 778 780 782 782 781 782 785 781 773 772 775 776 778 780 781 783 786 788 788 787 788 785 782 784 783 778 775 773 771 767 767 768 756 748 749 745 742 739 734 731 728 728 726 723 723 722 722 722 722
828 825 823 821 818 817 816 816 815 815 815 815 815 816 816 816 815 814 815 814 808 798 792 792 792 790 787 786 785 785 785 785 784 781 778 779 780 780 779 777 779 780 779 780 784 784 776 770 772 775 776 778 780 780 782 785 788 787 783 780 779 778 780 779 778 778 781 779 767 768 777 760 743 745 743 738 737 733 729 726 725 721 718 719 720 719 719 718
827 825 822 820 818 816 815 816 816 816 815 815 816 816 815 815 814 814 816 812 803 797 794 791 791 789 785 787 786 783 787 786 781 780 779 779 780 780 781 779 778 779 778 777 780 778 771 768 771 773 774 777 780 781 779 780 787 786 775 771 774 776 778 778 777 780 784 780 764 764 776 764 746 744 739 734 734 730 728 726 723 719 716 714 715 714 715 715
826 824 822 820 818 817 816 816 816 816 816 816 816 815 814 814 813 814 812 807 803 799 796 793 791 789 786 787 785 785 791 787 780 780 780 781 780 779 784 783 780 780 779 780 782 776 769 768 769 770 772 776 779 780 776 775 783 780 767 767 772 773 776 776 776 780 778 772 765 762 769 768 755 746 737 731 731 727 726 724 720 718 715 712 711 709 709 710
825 823 822 819 819 818 817 817 816 815 816 816 815 814 814 812 812 815 808 803 805 800 795 793 789 787 787 787 786 787 790 787 785 784 781 782 782 781 785 784 783 783 780 784 785 776 770 770 770 769 772 774 774 772 770 772 776 771 763 767 769 769 772 771 773 778 773 774 776 765 764 769 756 742 735 731 731 729 725 721 716 714 712 710 708 706 704 705
825 822 820 819 818 817 817 817 815 815 815 814 814 813 813 811 812 813 806 804 806 799 794 793 788 788 790 789 789 789 788 787 789 786 781 782 783 783 786 785 786 787 785 785 784 778 773 771 770 771 774 773 768 766 765 769 770 764 763 766 766 767 768 768 771 772 771 780 781 765 761 768 755 738 736 735 734 730 725 719 713 709 708 707 705 704 702 702
823 821 819 817 817 816 816 816 814 815 814 813 813 811 811 812 810 807 806 808 808 801 795 793 791 792 794 795 794 791 790 789 787 785 783 784 784 784 785 786 787 790 790 788 785 781 776 772 771 770 770 768 765 763 763 765 764 761 764 765 765 766 765 766 767 768 775 782 776 760 755 762 756 740 734 734 729 723 720 716 710 706 705 704 702 701 701 701
821 819 817 815 815 816 816 815 814 813 813 812 811 810 810 810 809 810 811 810 808 803 798 796 795 794 796 803 800 792 791 790 787 788 787 786 786 786 785 786 787 789 790 788 783 779 776 774 770 765 763 764 764 765 763 762 762 762 764 766 769 768 763 766 765 769 783 780 764 753 751 758 757 741 731 728 722 716 716 713 707 703 702 701 700 698 697 698
819 817 815 814 815 815 815 814 813 812 812 811 810 810 807 805 812 820 817 810 808 805 802 800 799 797 800 804 800 795 793 791 790 791 790 790 790 788 787 788 788 787 788 788 784 779 774 769 765 761 759 761 764 766 765 763 763 764 766 770 779 779 775 775 768 769 778 769 752 747 747 750 748 734 727 724 718 714 712 709 704 700 698 698 698 696 694 695
818 816 814 814 814 814 814 814 812 812 811 809 810 809 804 805 817 825 820 815 812 807 804 803 801 801 804 801 796 798 796 793 792 792 791 794 792 787 787 789 788 785 788 792 791 786 774 763 762 764 760 758 761 765 768 766 763 765 766 770 779 784 788 787 775 769 770 759 747 745 748 747 737 725 719 716 712 707 704 701 698 695 693 694 694 693 692 692
818 816 815 815 814 814 814 813 812 811 809 809 808 804 803 812 821 821 819 817 812 807 806 807 805 804 804 801 799 801 798 795 795 794 793 793 791 786 784 786 788 787 789 793 793 791 782 767 762 764 760 756 757 758 761 761 760 761 760 764 770 772 776 778 771 767 765 760 752 750 752 746 730 717 707 703 702 698 696 694 691 690 689 690 691 690 690 689
817 816 815 815 815 814 814 813 812 811 809 807 805 806 812 821 825 823 821 816 811 810 808 808 810 807 801 801 803 802 801 799 797 796 795 794 790 786 781 781 785 789 789 790 788 790 790 776 762 758 756 755 755 753 752 758 762 759 756 761 763 758 758 763 764 762 763 767 762 751 746 734 718 707 698 695 695 692 691 690 688 689 687 689 689 687 687 686
817 816 816 816 816 815 814 814 812 811 810 805 805 815 822 821 822 823 819 813 813 814 812 809 810 808 802 800 800 800 801 802 801 800 797 793 787 784 782 779 780 784 782 782 783 784 784 773 759 757 755 752 753 750 749 754 757 757 758 758 753 749 751 755 763 766 766 770 763 751 745 732 718 708 696 693 694 689 687 686 685 687 686 687 687 684 683 682
817 817 817 817 816 815 815 814 812 811 810 806 808 820 825 819 817 818 814 812 814 815 818 815 810 808 807 803 800 798 799 801 804 803 800 793 782 776 778 775 775 779 776 775 778 778 779 768 755 756 755 749 750 751 749 748 748 753 756 751 748 751 753 754 763 769 770 773 762 748 743 733 724 713 694 688 693 688 684 684 683 684 685 686 683 681 681 678
818 818 818 818 817 817 816 814 813 812 810 810 815 823 825 820 816 815 813 813 815 815 818 817 810 807 809 808 802 797 797 800 801 803 804 798 783 773 773 771 771 775 774 775 776 777 781 773 756 753 756 751 748 751 752 747 744 748 747 744 749 756 759 761 766 766 770 776 763 746 741 732 721 711 697 691 691 686 683 683 682 682 683 684 682 680 678 675
819 818 818 819 818 817 817 814 813 812 809 815 822 824 824 821 816 814 813 814 816 815 815 814 811 810 810 809 804 799 798 799 799 801 803 797 783 772 770 769 770 773 773 776 778 777 781 779 765 754 754 753 750 751 752 747 744 746 746 745 747 750 752 756 760 761 766 773 766 754 747 731 710 701 697 694 690 684 683 683 682 682 682 682 681 679 675 673
821 820 820 820 819 818 818 815 815 814 814 823 829 827 826 823 816 812 812 812 814 813 812 813 813 812 809 807 806 803 800 798 799 802 801 795 785 772 767 770 773 773 771 772 776 778 780 784 774 756 753 757 754 748 745 742 742 745 748 749 745 744 746 748 753 755 759 768 770 767 755 725 701 696 695 693 690 686 683 682 682 682 681 680 679 678 676 672
823 822 821 820 819 819 817 816 822 826 825 829 832 828 825 822 816 813 811 811 811 810 811 813 812 812 810 807 805 804 802 800 799 800 799 794 787 775 769 772 774 772 771 773 777 777 778 783 777 763 759 760 751 742 739 739 739 740 743 745 742 741 744 749 755 752 752 758 760 763 754 721 698 697 694 692 693 687 682 681 680 679 678 677 677 677 675 670
825 823 822 821 820 819 818 820 831 837 831 828 829 828 824 820 818 815 812 812 812 812 813 813 812 813 812 809 807 805 805 802 798 797 795 789 784 775 769 769 770 768 770 773 775 774 774 779 778 768 760 753 743 738 738 737 737 740 743 743 741 740 739 744 750 747 747 753 752 757 755 724 699 699 697 693 691 685 681 680 678 677 676 674 674 673 671 668
829 827 823 822 821 820 818 822 831 835 831 828 828 827 824 821 819 816 814 813 813 814 814 812 812 812 809 808 809 808 806 802 794 790 789 784 777 768 764 766 767 766 768 771 772 773 775 777 774 765 754 744 738 737 739 738 740 744 745 742 744 744 737 735 740 738 739 745 746 753 750 720 697 698 699 692 684 680 680 679 676 674 671 670 669 668 667 664
834 832 826 824 822 821 823 827 832 834 833 831 830 826 824 822 819 818 818 815 813 815 815 812 812 812 810 811 811 808 807 804 793 784 784 783 772 761 761 765 765 764 764 763 764 769 771 771 770 765 755 745 738 738 743 746 747 747 743 740 743 742 739 738 737 737 738 735 733 742 739 715 697 694 693 688 683 679 678 677 675 671 668 667 667 664 663 661
833 830 828 827 823 823 828 833 836 838 837 836 833 828 826 824 820 819 819 816 814 815 814 812 812 812 812 813 812 807 806 805 798 786 782 780 769 759 759 762 762 761 758 754 758 765 766 765 766 763 757 752 746 742 743 745 748 746 738 735 737 738 739 739 736 740 742 731 726 732 727 709 696 691 687 686 686 682 676 672 670 668 667 666 665 662 660 658
833 829 828 828 826 828 833 835 838 840 840 840 836 830 830 830 823 819 818 816 816 815 813 813 813 813 813 814 813 808 803 802 799 791 783 779 771 761 758 758 757 754 749 748 754 762 764 763 762 759 754 751 747 741 738 739 743 743 736 731 732 733 734 735 736 737 735 729 726 723 716 707 697 689 686 687 686 680 674 670 666 665 665 664 662 659 657 656
836 836 837 835 832 831 834 836 840 842 842 842 837 832 834 835 829 823 819 817 817 815 814 813 814 815 817 818 817 811 802 798 797 791 784 778 769 761 757 755 753 746 741 745 751 758 763 759 755 756 751 745 744 742 738 739 741 741 739 734 731 731 733 736 736 730 725 729 727 714 708 708 698 686 687 688 682 676 672 670 666 663 662 660 658 656 654 652
837 841 844 843 839 837 836 837 840 842 841 840 837 835 837 837 835 832 825 820 818 816 815 815 815 817 819 820 820 815 805 798 792 785 781 776 769 765 759 751 747 743 744 752 755 757 762 756 747 749 746 740 743 743 740 742 742 739 740 738 734 732 731 730 729 725 723 723 717 706 705 705 694 685 685 682 676 671 669 667 665 663 662 658 656 654 651 647
842 844 845 844 843 843 842 840 841 843 840 837 836 837 839 838 838 837 831 826 823 818 817 819 818 817 817 817 819 817 809 802 795 785 781 778 774 772 767 755 748 745 749 759 761 759 761 754 744 745 743 735 736 738 738 742 741 736 735 735 733 731 727 724 721 720 720 716 708 704 705 700 688 682 679 674 672 672 668 665 664 662 660 656 654 652 650 646
846 848 847 847 846 845 844 843 842 843 840 837 837 838 839 839 838 836 833 830 828 821 818 820 819 817 816 814 816 814 806 803 801 791 784 784 778 772 769 760 750 749 751 757 760 760 758 748 739 743 742 729 723 728 733 736 737 735 733 731 731 730 728 725 720 716 716 715 708 705 706 697 682 674 674 673 672 672 668 664 662 659 656 654 652 650 649 647
848 848 849 850 847 844 844 843 843 843 841 839 840 840 840 839 838 836 832 826 824 821 818 819 820 818 816 813 811 807 798 796 796 787 782 784 779 771 768 760 753 755 756 755 756 759 759 750 740 742 742 728 718 721 727 730 732 732 729 727 727 726 723 720 716 711 710 708 704 706 706 694 679 674 677 674 671 671 667 662 659 656 653 652 651 650 650 649
849 848 848 849 847 844 844 843 843 843 840 840 842 841 841 840 837 837 833 823 819 819 818 820 820 818 816 812 804 798 793 789 786 778 772 773 770 765 763 759 756 760 761 758 756 755 756 752 744 743 741 727 717 719 724 725 725 724 722 720 720 719 716 712 707 703 701 701 702 702 698 689 683 684 684 677 671 669 665 659 656 653 651 651 650 651 650 648